Year,Month,Day,Hour,Minute,Value (Times are PST for insolation in W/m^2)
2005,07,17,00,00,0.00
2005,07,17,00,01,0.00
2005,07,17,00,02,0.00
2005,07,17,00,03,0.00
2005,07,17,00,04,0.00
2005,07,17,00,05,0.00
2005,07,17,00,06,0.00
2005,07,17,00,07,0.00
2005,07,17,00,08,0.00
2005,07,17,00,09,0.00
2005,07,17,00,10,0.00
2005,07,17,00,11,0.00
2005,07,17,00,12,0.00
2005,07,17,00,13,0.00
2005,07,17,00,14,0.00
2005,07,17,00,15,0.00
2005,07,17,00,16,0.00
2005,07,17,00,17,0.00
2005,07,17,00,18,0.00
2005,07,17,00,19,0.00
2005,07,17,00,20,0.00
2005,07,17,00,21,0.00
2005,07,17,00,22,0.00
2005,07,17,00,23,0.00
2005,07,17,00,24,0.00
2005,07,17,00,25,0.00
2005,07,17,00,26,0.00
2005,07,17,00,27,0.00
2005,07,17,00,28,0.00
2005,07,17,00,29,0.00
2005,07,17,00,30,0.00
2005,07,17,00,31,0.00
2005,07,17,00,32,0.00
2005,07,17,00,33,0.00
2005,07,17,00,34,0.00
2005,07,17,00,35,0.00
2005,07,17,00,36,0.00
2005,07,17,00,37,0.00
2005,07,17,00,38,0.00
2005,07,17,00,39,0.00
2005,07,17,00,40,0.00
2005,07,17,00,41,0.00
2005,07,17,00,42,0.00
2005,07,17,00,43,0.00
2005,07,17,00,44,0.00
2005,07,17,00,45,0.00
2005,07,17,00,46,0.00
2005,07,17,00,47,0.00
2005,07,17,00,48,0.00
2005,07,17,00,49,0.00
2005,07,17,00,50,0.00
2005,07,17,00,51,0.00
2005,07,17,00,52,0.00
2005,07,17,00,53,0.00
2005,07,17,00,54,0.00
2005,07,17,00,55,0.00
2005,07,17,00,56,0.00
2005,07,17,00,57,0.00
2005,07,17,00,58,0.00
2005,07,17,00,59,0.00
2005,07,17,01,00,0.00
2005,07,17,01,01,0.00
2005,07,17,01,02,0.00
2005,07,17,01,03,0.00
2005,07,17,01,04,0.00
2005,07,17,01,05,0.00
2005,07,17,01,06,0.00
2005,07,17,01,07,0.00
2005,07,17,01,08,0.00
2005,07,17,01,09,0.00
2005,07,17,01,10,0.00
2005,07,17,01,11,0.00
2005,07,17,01,12,0.00
2005,07,17,01,13,0.00
2005,07,17,01,14,0.00
2005,07,17,01,15,0.00
2005,07,17,01,16,0.00
2005,07,17,01,17,0.00
2005,07,17,01,18,0.00
2005,07,17,01,19,0.00
2005,07,17,01,20,0.00
2005,07,17,01,21,0.00
2005,07,17,01,22,0.00
2005,07,17,01,23,0.00
2005,07,17,01,24,0.00
2005,07,17,01,25,0.00
2005,07,17,01,26,0.00
2005,07,17,01,27,0.00
2005,07,17,01,28,0.00
2005,07,17,01,29,0.00
2005,07,17,01,30,0.00
2005,07,17,01,31,0.00
2005,07,17,01,32,0.00
2005,07,17,01,33,0.00
2005,07,17,01,34,0.00
2005,07,17,01,35,0.00
2005,07,17,01,36,0.00
2005,07,17,01,37,0.00
2005,07,17,01,38,0.00
2005,07,17,01,39,0.00
2005,07,17,01,40,0.00
2005,07,17,01,41,0.00
2005,07,17,01,42,0.00
2005,07,17,01,43,0.00
2005,07,17,01,44,0.00
2005,07,17,01,45,0.00
2005,07,17,01,46,0.00
2005,07,17,01,47,0.00
2005,07,17,01,48,0.00
2005,07,17,01,49,0.00
2005,07,17,01,50,0.00
2005,07,17,01,51,0.00
2005,07,17,01,52,0.00
2005,07,17,01,53,0.00
2005,07,17,01,54,0.00
2005,07,17,01,55,0.00
2005,07,17,01,56,0.00
2005,07,17,01,57,0.00
2005,07,17,01,58,0.00
2005,07,17,01,59,0.00
2005,07,17,02,00,0.00
2005,07,17,02,01,0.00
2005,07,17,02,02,0.00
2005,07,17,02,03,0.00
2005,07,17,02,04,0.00
2005,07,17,02,05,0.00
2005,07,17,02,06,0.00
2005,07,17,02,07,0.00
2005,07,17,02,08,0.00
2005,07,17,02,09,0.00
2005,07,17,02,10,0.00
2005,07,17,02,11,0.00
2005,07,17,02,12,0.00
2005,07,17,02,13,0.00
2005,07,17,02,14,0.00
2005,07,17,02,15,0.00
2005,07,17,02,16,0.00
2005,07,17,02,17,0.00
2005,07,17,02,18,0.00
2005,07,17,02,19,0.00
2005,07,17,02,20,0.00
2005,07,17,02,21,0.00
2005,07,17,02,22,0.00
2005,07,17,02,23,0.00
2005,07,17,02,24,0.00
2005,07,17,02,25,0.00
2005,07,17,02,26,0.00
2005,07,17,02,27,0.00
2005,07,17,02,28,0.00
2005,07,17,02,29,0.00
2005,07,17,02,30,0.00
2005,07,17,02,31,0.00
2005,07,17,02,32,0.00
2005,07,17,02,33,0.00
2005,07,17,02,34,0.00
2005,07,17,02,35,0.00
2005,07,17,02,36,0.00
2005,07,17,02,37,0.00
2005,07,17,02,38,0.00
2005,07,17,02,39,0.00
2005,07,17,02,40,0.00
2005,07,17,02,41,0.00
2005,07,17,02,42,0.00
2005,07,17,02,43,0.00
2005,07,17,02,44,0.00
2005,07,17,02,45,0.00
2005,07,17,02,46,0.00
2005,07,17,02,47,0.00
2005,07,17,02,48,0.00
2005,07,17,02,49,0.00
2005,07,17,02,50,0.00
2005,07,17,02,51,0.00
2005,07,17,02,52,0.00
2005,07,17,02,53,0.00
2005,07,17,02,54,0.00
2005,07,17,02,55,0.00
2005,07,17,02,56,0.00
2005,07,17,02,57,0.00
2005,07,17,02,58,0.00
2005,07,17,02,59,0.00
2005,07,17,03,00,0.00
2005,07,17,03,01,0.00
2005,07,17,03,02,0.00
2005,07,17,03,03,0.00
2005,07,17,03,04,0.00
2005,07,17,03,05,0.00
2005,07,17,03,06,0.00
2005,07,17,03,07,0.00
2005,07,17,03,08,0.00
2005,07,17,03,09,0.00
2005,07,17,03,10,0.00
2005,07,17,03,11,0.00
2005,07,17,03,12,0.00
2005,07,17,03,13,0.00
2005,07,17,03,14,0.00
2005,07,17,03,15,0.00
2005,07,17,03,16,0.00
2005,07,17,03,17,0.00
2005,07,17,03,18,0.00
2005,07,17,03,19,0.00
2005,07,17,03,20,0.00
2005,07,17,03,21,0.00
2005,07,17,03,22,0.00
2005,07,17,03,23,0.00
2005,07,17,03,24,0.00
2005,07,17,03,25,0.00
2005,07,17,03,26,0.00
2005,07,17,03,27,0.00
2005,07,17,03,28,0.00
2005,07,17,03,29,0.00
2005,07,17,03,30,0.00
2005,07,17,03,31,0.00
2005,07,17,03,32,0.00
2005,07,17,03,33,0.00
2005,07,17,03,34,0.00
2005,07,17,03,35,0.00
2005,07,17,03,36,0.00
2005,07,17,03,37,0.00
2005,07,17,03,38,0.00
2005,07,17,03,39,0.00
2005,07,17,03,40,0.00
2005,07,17,03,41,0.00
2005,07,17,03,42,0.00
2005,07,17,03,43,0.00
2005,07,17,03,44,0.00
2005,07,17,03,45,0.00
2005,07,17,03,46,0.00
2005,07,17,03,47,0.00
2005,07,17,03,48,0.00
2005,07,17,03,49,0.00
2005,07,17,03,50,0.00
2005,07,17,03,51,0.00
2005,07,17,03,52,0.00
2005,07,17,03,53,0.00
2005,07,17,03,54,0.00
2005,07,17,03,55,0.00
2005,07,17,03,56,0.00
2005,07,17,03,57,0.00
2005,07,17,03,58,0.00
2005,07,17,03,59,0.00
2005,07,17,04,00,0.00
2005,07,17,04,01,0.00
2005,07,17,04,02,0.00
2005,07,17,04,03,0.00
2005,07,17,04,04,0.00
2005,07,17,04,05,0.00
2005,07,17,04,06,0.00
2005,07,17,04,07,0.00
2005,07,17,04,08,0.00
2005,07,17,04,09,0.00
2005,07,17,04,10,0.00
2005,07,17,04,11,0.00
2005,07,17,04,12,0.00
2005,07,17,04,13,0.00
2005,07,17,04,14,0.00
2005,07,17,04,15,0.00
2005,07,17,04,16,0.00
2005,07,17,04,17,0.00
2005,07,17,04,18,0.00
2005,07,17,04,19,0.00
2005,07,17,04,20,0.00
2005,07,17,04,21,0.00
2005,07,17,04,22,0.00
2005,07,17,04,23,0.00
2005,07,17,04,24,0.00
2005,07,17,04,25,0.00
2005,07,17,04,26,0.00
2005,07,17,04,27,0.00
2005,07,17,04,28,0.00
2005,07,17,04,29,0.00
2005,07,17,04,30,0.00
2005,07,17,04,31,0.00
2005,07,17,04,32,0.00
2005,07,17,04,33,0.00
2005,07,17,04,34,0.00
2005,07,17,04,35,0.00
2005,07,17,04,36,0.00
2005,07,17,04,37,0.00
2005,07,17,04,38,0.00
2005,07,17,04,39,0.00
2005,07,17,04,40,0.00
2005,07,17,04,41,0.00
2005,07,17,04,42,0.00
2005,07,17,04,43,0.00
2005,07,17,04,44,0.00
2005,07,17,04,45,0.00
2005,07,17,04,46,0.00
2005,07,17,04,47,0.00
2005,07,17,04,48,0.00
2005,07,17,04,49,0.00
2005,07,17,04,50,0.00
2005,07,17,04,51,0.00
2005,07,17,04,52,0.00
2005,07,17,04,53,0.00
2005,07,17,04,54,0.00
2005,07,17,04,55,0.00
2005,07,17,04,56,0.00
2005,07,17,04,57,0.00
2005,07,17,04,58,0.00
2005,07,17,04,59,0.00
2005,07,17,05,00,0.00
2005,07,17,05,01,0.00
2005,07,17,05,02,0.00
2005,07,17,05,03,0.00
2005,07,17,05,04,0.00
2005,07,17,05,05,0.00
2005,07,17,05,06,0.00
2005,07,17,05,07,0.00
2005,07,17,05,08,0.00
2005,07,17,05,09,0.00
2005,07,17,05,10,0.00
2005,07,17,05,11,0.00
2005,07,17,05,12,0.00
2005,07,17,05,13,0.00
2005,07,17,05,14,0.00
2005,07,17,05,15,0.00
2005,07,17,05,16,0.00
2005,07,17,05,17,0.00
2005,07,17,05,18,0.00
2005,07,17,05,19,0.00
2005,07,17,05,20,0.00
2005,07,17,05,21,0.00
2005,07,17,05,22,0.00
2005,07,17,05,23,0.00
2005,07,17,05,24,0.00
2005,07,17,05,25,0.00
2005,07,17,05,26,0.00
2005,07,17,05,27,0.00
2005,07,17,05,28,0.00
2005,07,17,05,29,0.00
2005,07,17,05,30,0.00
2005,07,17,05,31,0.00
2005,07,17,05,32,4.10
2005,07,17,05,33,5.00
2005,07,17,05,34,5.00
2005,07,17,05,35,5.00
2005,07,17,05,36,5.00
2005,07,17,05,37,5.00
2005,07,17,05,38,6.70
2005,07,17,05,39,7.00
2005,07,17,05,40,7.00
2005,07,17,05,41,7.80
2005,07,17,05,42,10.00
2005,07,17,05,43,11.70
2005,07,17,05,44,13.70
2005,07,17,05,45,16.30
2005,07,17,05,46,18.00
2005,07,17,05,47,18.40
2005,07,17,05,48,20.20
2005,07,17,05,49,22.50
2005,07,17,05,50,24.70
2005,07,17,05,51,25.10
2005,07,17,05,52,26.70
2005,07,17,05,53,28.90
2005,07,17,05,54,30.00
2005,07,17,05,55,31.50
2005,07,17,05,56,33.00
2005,07,17,05,57,35.40
2005,07,17,05,58,37.60
2005,07,17,05,59,39.50
2005,07,17,06,00,40.00
2005,07,17,06,01,42.90
2005,07,17,06,02,46.20
2005,07,17,06,03,47.40
2005,07,17,06,04,49.70
2005,07,17,06,05,52.00
2005,07,17,06,06,53.70
2005,07,17,06,07,55.60
2005,07,17,06,08,58.00
2005,07,17,06,09,62.20
2005,07,17,06,10,63.80
2005,07,17,06,11,66.00
2005,07,17,06,12,68.30
2005,07,17,06,13,69.80
2005,07,17,06,14,74.00
2005,07,17,06,15,76.20
2005,07,17,06,16,78.50
2005,07,17,06,17,82.00
2005,07,17,06,18,83.70
2005,07,17,06,19,85.70
2005,07,17,06,20,89.90
2005,07,17,06,21,91.60
2005,07,17,06,22,93.90
2005,07,17,06,23,96.60
2005,07,17,06,24,99.30
2005,07,17,06,25,101.60
2005,07,17,06,26,105.30
2005,07,17,06,27,107.60
2005,07,17,06,28,110.70
2005,07,17,06,29,113.60
2005,07,17,06,30,117.00
2005,07,17,06,31,119.80
2005,07,17,06,32,123.30
2005,07,17,06,33,125.60
2005,07,17,06,34,128.40
2005,07,17,06,35,131.20
2005,07,17,06,36,134.30
2005,07,17,06,37,136.90
2005,07,17,06,38,139.30
2005,07,17,06,39,141.30
2005,07,17,06,40,144.00
2005,07,17,06,41,147.30
2005,07,17,06,42,148.80
2005,07,17,06,43,151.00
2005,07,17,06,44,155.20
2005,07,17,06,45,156.60
2005,07,17,06,46,158.90
2005,07,17,06,47,161.30
2005,07,17,06,48,162.80
2005,07,17,06,49,166.70
2005,07,17,06,50,169.50
2005,07,17,06,51,171.40
2005,07,17,06,52,172.00
2005,07,17,06,53,174.50
2005,07,17,06,54,177.60
2005,07,17,06,55,179.10
2005,07,17,06,56,181.60
2005,07,17,06,57,183.80
2005,07,17,06,58,185.60
2005,07,17,06,59,188.70
2005,07,17,07,00,190.00
2005,07,17,07,01,192.00
2005,07,17,07,02,193.00
2005,07,17,07,03,193.00
2005,07,17,07,04,196.50
2005,07,17,07,05,199.70
2005,07,17,07,06,201.60
2005,07,17,07,07,204.30
2005,07,17,07,08,206.30
2005,07,17,07,09,207.90
2005,07,17,07,10,210.20
2005,07,17,07,11,211.00
2005,07,17,07,12,212.70
2005,07,17,07,13,214.30
2005,07,17,07,14,216.60
2005,07,17,07,15,218.00
2005,07,17,07,16,219.20
2005,07,17,07,17,220.70
2005,07,17,07,18,222.90
2005,07,17,07,19,225.40
2005,07,17,07,20,227.70
2005,07,17,07,21,229.50
2005,07,17,07,22,231.20
2005,07,17,07,23,233.50
2005,07,17,07,24,236.00
2005,07,17,07,25,237.40
2005,07,17,07,26,239.70
2005,07,17,07,27,241.90
2005,07,17,07,28,243.60
2005,07,17,07,29,247.20
2005,07,17,07,30,249.90
2005,07,17,07,31,251.80
2005,07,17,07,32,255.80
2005,07,17,07,33,257.50
2005,07,17,07,34,259.30
2005,07,17,07,35,263.30
2005,07,17,07,36,265.10
2005,07,17,07,37,268.00
2005,07,17,07,38,271.40
2005,07,17,07,39,274.20
2005,07,17,07,40,277.30
2005,07,17,07,41,278.90
2005,07,17,07,42,283.30
2005,07,17,07,43,285.50
2005,07,17,07,44,288.20
2005,07,17,07,45,290.00
2005,07,17,07,46,293.50
2005,07,17,07,47,296.60
2005,07,17,07,48,299.30
2005,07,17,07,49,301.90
2005,07,17,07,50,304.90
2005,07,17,07,51,307.10
2005,07,17,07,52,308.80
2005,07,17,07,53,312.60
2005,07,17,07,54,315.20
2005,07,17,07,55,317.30
2005,07,17,07,56,320.90
2005,07,17,07,57,322.60
2005,07,17,07,58,326.00
2005,07,17,07,59,328.90
2005,07,17,08,00,330.80
2005,07,17,08,01,334.70
2005,07,17,08,02,337.00
2005,07,17,08,03,339.80
2005,07,17,08,04,342.50
2005,07,17,08,05,344.90
2005,07,17,08,06,346.40
2005,07,17,08,07,349.30
2005,07,17,08,08,353.50
2005,07,17,08,09,356.30
2005,07,17,08,10,359.40
2005,07,17,08,11,364.00
2005,07,17,08,12,366.60
2005,07,17,08,13,369.70
2005,07,17,08,14,372.60
2005,07,17,08,15,375.30
2005,07,17,08,16,377.60
2005,07,17,08,17,380.20
2005,07,17,08,18,384.00
2005,07,17,08,19,387.40
2005,07,17,08,20,389.10
2005,07,17,08,21,392.70
2005,07,17,08,22,395.60
2005,07,17,08,23,397.20
2005,07,17,08,24,400.00
2005,07,17,08,25,403.40
2005,07,17,08,26,406.30
2005,07,17,08,27,409.40
2005,07,17,08,28,412.60
2005,07,17,08,29,415.30
2005,07,17,08,30,418.50
2005,07,17,08,31,421.00
2005,07,17,08,32,423.80
2005,07,17,08,33,426.50
2005,07,17,08,34,428.70
2005,07,17,08,35,431.50
2005,07,17,08,36,435.30
2005,07,17,08,37,438.50
2005,07,17,08,38,441.40
2005,07,17,08,39,444.50
2005,07,17,08,40,447.80
2005,07,17,08,41,452.40
2005,07,17,08,42,454.30
2005,07,17,08,43,456.00
2005,07,17,08,44,459.50
2005,07,17,08,45,461.80
2005,07,17,08,46,465.70
2005,07,17,08,47,468.20
2005,07,17,08,48,470.50
2005,07,17,08,49,474.00
2005,07,17,08,50,475.00
2005,07,17,08,51,477.40
2005,07,17,08,52,481.90
2005,07,17,08,53,483.50
2005,07,17,08,54,485.70
2005,07,17,08,55,488.10
2005,07,17,08,56,489.70
2005,07,17,08,57,491.60
2005,07,17,08,58,494.20
2005,07,17,08,59,497.50
2005,07,17,09,00,499.80
2005,07,17,09,01,502.60
2005,07,17,09,02,504.00
2005,07,17,09,03,504.00
2005,07,17,09,04,504.00
2005,07,17,09,05,504.00
2005,07,17,09,06,509.00
2005,07,17,09,07,518.60
2005,07,17,09,08,521.50
2005,07,17,09,09,523.60
2005,07,17,09,10,527.30
2005,07,17,09,11,529.90
2005,07,17,09,12,533.40
2005,07,17,09,13,535.00
2005,07,17,09,14,537.40
2005,07,17,09,15,540.50
2005,07,17,09,16,543.80
2005,07,17,09,17,547.30
2005,07,17,09,18,549.70
2005,07,17,09,19,553.20
2005,07,17,09,20,554.70
2005,07,17,09,21,556.80
2005,07,17,09,22,559.60
2005,07,17,09,23,563.00
2005,07,17,09,24,564.40
2005,07,17,09,25,568.50
2005,07,17,09,26,572.20
2005,07,17,09,27,573.10
2005,07,17,09,28,575.40
2005,07,17,09,29,577.00
2005,07,17,09,30,577.50
2005,07,17,09,31,581.80
2005,07,17,09,32,582.50
2005,07,17,09,33,584.10
2005,07,17,09,34,587.50
2005,07,17,09,35,591.00
2005,07,17,09,36,596.10
2005,07,17,09,37,600.10
2005,07,17,09,38,604.10
2005,07,17,09,39,605.30
2005,07,17,09,40,609.00
2005,07,17,09,41,612.40
2005,07,17,09,42,614.10
2005,07,17,09,43,616.40
2005,07,17,09,44,620.40
2005,07,17,09,45,622.00
2005,07,17,09,46,623.00
2005,07,17,09,47,626.00
2005,07,17,09,48,627.10
2005,07,17,09,49,630.00
2005,07,17,09,50,632.60
2005,07,17,09,51,636.20
2005,07,17,09,52,638.50
2005,07,17,09,53,640.90
2005,07,17,09,54,643.70
2005,07,17,09,55,646.50
2005,07,17,09,56,648.80
2005,07,17,09,57,652.40
2005,07,17,09,58,654.90
2005,07,17,09,59,657.90
2005,07,17,10,00,659.00
2005,07,17,10,01,661.90
2005,07,17,10,02,664.00
2005,07,17,10,03,666.40
2005,07,17,10,04,668.90
2005,07,17,10,05,672.00
2005,07,17,10,06,674.20
2005,07,17,10,07,676.50
2005,07,17,10,08,678.80
2005,07,17,10,09,679.50
2005,07,17,10,10,682.70
2005,07,17,10,11,685.40
2005,07,17,10,12,688.30
2005,07,17,10,13,689.00
2005,07,17,10,14,692.60
2005,07,17,10,15,693.20
2005,07,17,10,16,695.50
2005,07,17,10,17,699.00
2005,07,17,10,18,700.60
2005,07,17,10,19,701.00
2005,07,17,10,20,705.00
2005,07,17,10,21,707.20
2005,07,17,10,22,708.80
2005,07,17,10,23,711.10
2005,07,17,10,24,713.40
2005,07,17,10,25,714.00
2005,07,17,10,26,714.90
2005,07,17,10,27,721.30
2005,07,17,10,28,722.00
2005,07,17,10,29,723.20
2005,07,17,10,30,726.90
2005,07,17,10,31,728.00
2005,07,17,10,32,729.60
2005,07,17,10,33,733.60
2005,07,17,10,34,735.00
2005,07,17,10,35,736.70
2005,07,17,10,36,738.00
2005,07,17,10,37,738.00
2005,07,17,10,38,744.10
2005,07,17,10,39,745.00
2005,07,17,10,40,746.90
2005,07,17,10,41,749.00
2005,07,17,10,42,751.30
2005,07,17,10,43,753.80
2005,07,17,10,44,754.80
2005,07,17,10,45,758.30
2005,07,17,10,46,759.00
2005,07,17,10,47,759.00
2005,07,17,10,48,761.90
2005,07,17,10,49,764.90
2005,07,17,10,50,766.50
2005,07,17,10,51,768.80
2005,07,17,10,52,770.00
2005,07,17,10,53,771.90
2005,07,17,10,54,774.50
2005,07,17,10,55,775.20
2005,07,17,10,56,777.60
2005,07,17,10,57,780.70
2005,07,17,10,58,783.10
2005,07,17,10,59,785.30
2005,07,17,11,00,787.70
2005,07,17,11,01,789.10
2005,07,17,11,02,791.50
2005,07,17,11,03,793.00
2005,07,17,11,04,794.00
2005,07,17,11,05,795.70
2005,07,17,11,06,797.60
2005,07,17,11,07,800.20
2005,07,17,11,08,802.70
2005,07,17,11,09,802.40
2005,07,17,11,10,804.00
2005,07,17,11,11,806.40
2005,07,17,11,12,807.00
2005,07,17,11,13,809.10
2005,07,17,11,14,810.60
2005,07,17,11,15,813.00
2005,07,17,11,16,815.20
2005,07,17,11,17,816.00
2005,07,17,11,18,816.90
2005,07,17,11,19,821.00
2005,07,17,11,20,821.70
2005,07,17,11,21,823.50
2005,07,17,11,22,824.00
2005,07,17,11,23,827.00
2005,07,17,11,24,829.70
2005,07,17,11,25,830.20
2005,07,17,11,26,831.00
2005,07,17,11,27,849.50
2005,07,17,11,28,847.00
2005,07,17,11,29,841.00
2005,07,17,11,30,835.50
2005,07,17,11,31,837.00
2005,07,17,11,32,837.40
2005,07,17,11,33,839.00
2005,07,17,11,34,841.40
2005,07,17,11,35,840.40
2005,07,17,11,36,842.00
2005,07,17,11,37,844.00
2005,07,17,11,38,844.70
2005,07,17,11,39,846.50
2005,07,17,11,40,847.00
2005,07,17,11,41,848.60
2005,07,17,11,42,849.30
2005,07,17,11,43,853.00
2005,07,17,11,44,853.40
2005,07,17,11,45,855.10
2005,07,17,11,46,856.00
2005,07,17,11,47,867.30
2005,07,17,11,48,870.50
2005,07,17,11,49,871.70
2005,07,17,11,50,861.80
2005,07,17,11,51,863.00
2005,07,17,11,52,864.40
2005,07,17,11,53,873.60
2005,07,17,11,54,879.30
2005,07,17,11,55,870.50
2005,07,17,11,56,873.30
2005,07,17,11,57,877.30
2005,07,17,11,58,880.50
2005,07,17,11,59,881.90
2005,07,17,12,00,886.30
2005,07,17,12,01,888.30
2005,07,17,12,02,888.60
2005,07,17,12,03,891.00
2005,07,17,12,04,895.30
2005,07,17,12,05,896.10
2005,07,17,12,06,898.40
2005,07,17,12,07,901.30
2005,07,17,12,08,903.00
2005,07,17,12,09,903.20
2005,07,17,12,10,902.50
2005,07,17,12,11,902.00
2005,07,17,12,12,902.40
2005,07,17,12,13,904.00
2005,07,17,12,14,904.00
2005,07,17,12,15,904.00
2005,07,17,12,16,902.40
2005,07,17,12,17,900.40
2005,07,17,12,18,901.50
2005,07,17,12,19,900.00
2005,07,17,12,20,902.20
2005,07,17,12,21,901.30
2005,07,17,12,22,898.40
2005,07,17,12,23,902.10
2005,07,17,12,24,904.20
2005,07,17,12,25,902.00
2005,07,17,12,26,902.00
2005,07,17,12,27,902.00
2005,07,17,12,28,902.00
2005,07,17,12,29,903.90
2005,07,17,12,30,903.50
2005,07,17,12,31,902.00
2005,07,17,12,32,903.10
2005,07,17,12,33,904.00
2005,07,17,12,34,904.00
2005,07,17,12,35,905.00
2005,07,17,12,36,904.00
2005,07,17,12,37,902.90
2005,07,17,12,38,904.60
2005,07,17,12,39,904.30
2005,07,17,12,40,904.90
2005,07,17,12,41,905.40
2005,07,17,12,42,907.00
2005,07,17,12,43,907.00
2005,07,17,12,44,907.00
2005,07,17,12,45,905.60
2005,07,17,12,46,905.10
2005,07,17,12,47,907.40
2005,07,17,12,48,909.00
2005,07,17,12,49,909.00
2005,07,17,12,50,910.30
2005,07,17,12,51,909.50
2005,07,17,12,52,910.80
2005,07,17,12,53,909.50
2005,07,17,12,54,911.00
2005,07,17,12,55,911.50
2005,07,17,12,56,912.00
2005,07,17,12,57,911.20
2005,07,17,12,58,911.90
2005,07,17,12,59,911.80
2005,07,17,13,00,912.10
2005,07,17,13,01,914.00
2005,07,17,13,02,914.00
2005,07,17,13,03,914.00
2005,07,17,13,04,912.10
2005,07,17,13,05,912.90
2005,07,17,13,06,915.20
2005,07,17,13,07,914.00
2005,07,17,13,08,914.00
2005,07,17,13,09,915.70
2005,07,17,13,10,912.70
2005,07,17,13,11,916.00
2005,07,17,13,12,916.00
2005,07,17,13,13,917.10
2005,07,17,13,14,916.60
2005,07,17,13,15,917.70
2005,07,17,13,16,917.70
2005,07,17,13,17,916.00
2005,07,17,13,18,916.80
2005,07,17,13,19,918.60
2005,07,17,13,20,919.00
2005,07,17,13,21,918.10
2005,07,17,13,22,918.00
2005,07,17,13,23,918.30
2005,07,17,13,24,919.00
2005,07,17,13,25,919.00
2005,07,17,13,26,919.00
2005,07,17,13,27,920.70
2005,07,17,13,28,919.00
2005,07,17,13,29,919.60
2005,07,17,13,30,918.60
2005,07,17,13,31,918.00
2005,07,17,13,32,918.20
2005,07,17,13,33,918.00
2005,07,17,13,34,918.20
2005,07,17,13,35,918.00
2005,07,17,13,36,915.00
2005,07,17,13,37,916.70
2005,07,17,13,38,916.40
2005,07,17,13,39,914.50
2005,07,17,13,40,917.60
2005,07,17,13,41,916.00
2005,07,17,13,42,916.00
2005,07,17,13,43,914.70
2005,07,17,13,44,914.00
2005,07,17,13,45,913.80
2005,07,17,13,46,912.50
2005,07,17,13,47,913.20
2005,07,17,13,48,913.10
2005,07,17,13,49,912.50
2005,07,17,13,50,913.70
2005,07,17,13,51,914.00
2005,07,17,13,52,913.50
2005,07,17,13,53,912.00
2005,07,17,13,54,911.40
2005,07,17,13,55,911.00
2005,07,17,13,56,911.00
2005,07,17,13,57,909.40
2005,07,17,13,58,910.40
2005,07,17,13,59,909.00
2005,07,17,14,00,907.80
2005,07,17,14,01,908.40
2005,07,17,14,02,909.00
2005,07,17,14,03,905.40
2005,07,17,14,04,906.40
2005,07,17,14,05,905.90
2005,07,17,14,06,905.80
2005,07,17,14,07,905.00
2005,07,17,14,08,905.00
2005,07,17,14,09,904.90
2005,07,17,14,10,902.70
2005,07,17,14,11,900.90
2005,07,17,14,12,900.80
2005,07,17,14,13,901.40
2005,07,17,14,14,901.80
2005,07,17,14,15,900.00
2005,07,17,14,16,900.00
2005,07,17,14,17,899.00
2005,07,17,14,18,899.30
2005,07,17,14,19,898.40
2005,07,17,14,20,896.20
2005,07,17,14,21,896.00
2005,07,17,14,22,896.00
2005,07,17,14,23,895.50
2005,07,17,14,24,895.70
2005,07,17,14,25,896.00
2005,07,17,14,26,893.10
2005,07,17,14,27,892.50
2005,07,17,14,28,891.00
2005,07,17,14,29,891.00
2005,07,17,14,30,889.70
2005,07,17,14,31,889.00
2005,07,17,14,32,889.00
2005,07,17,14,33,888.20
2005,07,17,14,34,886.00
2005,07,17,14,35,886.00
2005,07,17,14,36,886.00
2005,07,17,14,37,884.30
2005,07,17,14,38,883.70
2005,07,17,14,39,881.70
2005,07,17,14,40,881.00
2005,07,17,14,41,881.00
2005,07,17,14,42,881.00
2005,07,17,14,43,879.20
2005,07,17,14,44,878.60
2005,07,17,14,45,877.00
2005,07,17,14,46,876.10
2005,07,17,14,47,874.40
2005,07,17,14,48,874.80
2005,07,17,14,49,874.00
2005,07,17,14,50,872.00
2005,07,17,14,51,870.80
2005,07,17,14,52,868.90
2005,07,17,14,53,870.00
2005,07,17,14,54,867.50
2005,07,17,14,55,868.00
2005,07,17,14,56,867.10
2005,07,17,14,57,863.70
2005,07,17,14,58,863.10
2005,07,17,14,59,861.00
2005,07,17,15,00,860.20
2005,07,17,15,01,859.80
2005,07,17,15,02,858.00
2005,07,17,15,03,857.30
2005,07,17,15,04,856.00
2005,07,17,15,05,854.00
2005,07,17,15,06,853.00
2005,07,17,15,07,852.80
2005,07,17,15,08,850.50
2005,07,17,15,09,846.90
2005,07,17,15,10,845.50
2005,07,17,15,11,847.00
2005,07,17,15,12,846.20
2005,07,17,15,13,844.10
2005,07,17,15,14,844.00
2005,07,17,15,15,842.40
2005,07,17,15,16,840.00
2005,07,17,15,17,838.60
2005,07,17,15,18,863.50
2005,07,17,15,19,836.70
2005,07,17,15,20,835.00
2005,07,17,15,21,833.30
2005,07,17,15,22,831.00
2005,07,17,15,23,830.30
2005,07,17,15,24,828.20
2005,07,17,15,25,825.60
2005,07,17,15,26,823.70
2005,07,17,15,27,823.00
2005,07,17,15,28,821.90
2005,07,17,15,29,819.50
2005,07,17,15,30,817.20
2005,07,17,15,31,817.00
2005,07,17,15,32,816.00
2005,07,17,15,33,813.00
2005,07,17,15,34,812.00
2005,07,17,15,35,809.80
2005,07,17,15,36,806.90
2005,07,17,15,37,803.00
2005,07,17,15,38,803.00
2005,07,17,15,39,802.50
2005,07,17,15,40,800.70
2005,07,17,15,41,800.00
2005,07,17,15,42,796.10
2005,07,17,15,43,795.00
2005,07,17,15,44,793.60
2005,07,17,15,45,791.00
2005,07,17,15,46,791.00
2005,07,17,15,47,788.40
2005,07,17,15,48,784.00
2005,07,17,15,49,781.60
2005,07,17,15,50,779.60
2005,07,17,15,51,779.00
2005,07,17,15,52,779.00
2005,07,17,15,53,775.60
2005,07,17,15,54,774.60
2005,07,17,15,55,770.90
2005,07,17,15,56,768.00
2005,07,17,15,57,768.00
2005,07,17,15,58,765.90
2005,07,17,15,59,765.00
2005,07,17,16,00,762.70
2005,07,17,16,01,760.50
2005,07,17,16,02,758.50
2005,07,17,16,03,755.50
2005,07,17,16,04,754.00
2005,07,17,16,05,752.20
2005,07,17,16,06,751.50
2005,07,17,16,07,748.30
2005,07,17,16,08,746.00
2005,07,17,16,09,744.40
2005,07,17,16,10,742.50
2005,07,17,16,11,740.30
2005,07,17,16,12,739.60
2005,07,17,16,13,737.00
2005,07,17,16,14,735.00
2005,07,17,16,15,731.50
2005,07,17,16,16,728.20
2005,07,17,16,17,727.70
2005,07,17,16,18,722.50
2005,07,17,16,19,723.20
2005,07,17,16,20,721.50
2005,07,17,16,21,718.50
2005,07,17,16,22,715.50
2005,07,17,16,23,714.90
2005,07,17,16,24,713.00
2005,07,17,16,25,709.20
2005,07,17,16,26,706.50
2005,07,17,16,27,706.20
2005,07,17,16,28,702.10
2005,07,17,16,29,700.90
2005,07,17,16,30,700.00
2005,07,17,16,31,700.00
2005,07,17,16,32,696.20
2005,07,17,16,33,691.70
2005,07,17,16,34,689.40
2005,07,17,16,35,687.00
2005,07,17,16,36,685.50
2005,07,17,16,37,682.30
2005,07,17,16,38,680.00
2005,07,17,16,39,677.90
2005,07,17,16,40,675.30
2005,07,17,16,41,672.70
2005,07,17,16,42,670.70
2005,07,17,16,43,669.10
2005,07,17,16,44,665.70
2005,07,17,16,45,664.00
2005,07,17,16,46,661.30
2005,07,17,16,47,658.60
2005,07,17,16,48,656.70
2005,07,17,16,49,654.00
2005,07,17,16,50,650.80
2005,07,17,16,51,649.20
2005,07,17,16,52,647.10
2005,07,17,16,53,644.60
2005,07,17,16,54,642.70
2005,07,17,16,55,640.20
2005,07,17,16,56,636.10
2005,07,17,16,57,635.00
2005,07,17,16,58,631.30
2005,07,17,16,59,628.30
2005,07,17,17,00,625.30
2005,07,17,17,01,624.00
2005,07,17,17,02,622.80
2005,07,17,17,03,619.60
2005,07,17,17,04,618.70
2005,07,17,17,05,612.80
2005,07,17,17,06,611.20